Location: Sternwarte-Kraichtal
(49.1689°N, 8.6996°E)
Time: 19:27:55
(UTC+02:00)

Vanguard 2 Rocket - Pass Details

Date: 04 June 2022
Orbit: 553 x 3323 km, 32.9° (Epoch: 02 July)

Event Time Altitude Azimuth Distance (km) Brightness Sun altitude
Rises 13:48:06 0° 247° (WSW) 6,959 11.6 62.9°
Reaches altitude 10° 13:52:48 10° 242° (WSW) 6,122 11.5 62.7°
Maximum altitude 14:11:12 46° 178° (S) 3,919 11.7 61.7°
Drops below altitude 10° 14:26:56 10° 112° (ESE) 5,303 10.9 60.5°
Sets 14:30:39 0° 107° (ESE) 6,002 11.0 60.2°
